Change the Weather History Date:

Tuesday, November 26, 2013

  Actual Average (KLOZ) Record (KLOZ)
Temperature  
Mean Temperature 38 °F 44 °F  
Max Temperature 44 °F 54 °F 71 °F (1990)
Min Temperature 32 °F 34 °F 15 °F (1991)
Degree Days  
Heating Degree Days 27 21  
Month to date heating degree days 438  
Since 1 July heating degree days 744  
Cooling Degree Days 0 0  
Month to date cooling degree days 0  
Moisture  
Dew Point 36 °F    
Average Humidity 97    
Maximum Humidity 100    
Minimum Humidity 89    
Precipitation  
Precipitation 1.51 in 0.14 in 1.30 in (2007)
Month to date precipitation 3.25  
Sea Level Pressure  
Sea Level Pressure 29.96 in    
Wind  
Wind Speed 2 mph (NNW)    
Max Wind Speed 15 mph    
Max Gust Speed 21 mph    
Visibility 5 miles    
Events Rain , Snow    
T = Trace of Precipitation, MM = Missing Value Source: NWS Daily Summary

Daily Weather History Graph

Daily Weather History Graph

Search for Another Location

Airport or City:

Trip Planner

Search our weather history database for the weather conditions in past years. The results will help you decide how hot, cold, wet, or windy it might be!

Date:

Astronomy

Nov. 26, 2013 Rise Set
Actual Time 6:24 AM CST 4:20 PM CST
Civil Twilight 5:55 AM CST 4:48 PM CST
Nautical Twilight 5:24 AM CST 5:20 PM CST
Astronomical Twilight 4:53 AM CST 5:51 PM CST
Moon No Moon Rise 12:17 PM CST (11/26)
Length of Visible Light 10h 52m
Length of Day
9h 56m
Last Quarter, 41% of the Moon is Illuminated
Nov 26
Last Quarter
Dec 2
New
Dec 9
First Quarter
Dec 17
Full
Dec 25
Last Quarter

Hourly Weather History & Observations

Time (CST) Temp. Windchill Dew Point Humidity Pressure Visibility Wind Dir Wind Speed Gust Speed Precip Events Conditions
12:15 AM 32.9 °F - 32.4 °F 98% 30.18 in 5.0 mi Calm Calm - N/A Rain Light Rain
12:35 AM 32.9 °F 29.8 °F 32.7 °F 99% 30.18 in 5.0 mi West 3.5 mph - 0.01 in Rain Light Rain
12:55 AM 32.9 °F - 32.4 °F 98% 30.17 in 4.0 mi Calm Calm - 0.02 in Rain Light Rain
1:15 AM 33.3 °F - 32.9 °F 99% 30.18 in 7.0 mi Calm Calm - 0.01 in Rain Light Rain
1:35 AM 33.8 °F - 33.1 °F 97% 30.19 in 3.0 mi Calm Calm - 0.02 in Rain Light Rain
1:55 AM 33.8 °F - 33.3 °F 98% 30.20 in 2.0 mi Calm Calm - 0.03 in Rain Light Rain
2:15 AM 33.3 °F - 33.1 °F 99% 30.19 in 2.0 mi Calm Calm - 0.01 in Rain Light Rain
2:35 AM 33.3 °F - 33.1 °F 99% 30.18 in 1.8 mi Calm Calm - 0.03 in Rain Light Rain
2:55 AM 33.3 °F - 33.1 °F 99% 30.17 in 1.5 mi Calm Calm - 0.04 in Rain Light Rain
3:15 AM 33.3 °F - 33.1 °F 99% 30.16 in 4.0 mi Calm Calm - 0.01 in Rain Light Rain
3:35 AM 33.3 °F - 33.3 °F 100% 30.14 in 3.0 mi Calm Calm - 0.02 in Rain Light Rain
3:55 AM 33.3 °F - 33.3 °F 100% 30.14 in 1.8 mi Calm Calm - 0.04 in Rain Rain
4:15 AM 33.4 °F - 33.4 °F 100% 30.13 in 2.0 mi Calm Calm - 0.02 in Rain Rain
4:35 AM 33.4 °F - 33.4 °F 100% 30.12 in 2.0 mi Calm Calm - 0.05 in Rain Rain
4:55 AM 33.4 °F - 33.4 °F 100% 30.11 in 2.5 mi Calm Calm - 0.08 in Rain Rain
5:15 AM 33.6 °F - 33.6 °F 100% 30.11 in 2.0 mi Calm Calm - 0.03 in Rain Rain
5:35 AM 34.3 °F - 34.2 °F 99% 30.10 in 2.0 mi Calm Calm - 0.08 in Rain Rain
5:55 AM 34.7 °F - 34.7 °F 100% 30.11 in 2.0 mi Calm Calm - 0.12 in Rain Rain
6:15 AM 34.2 °F - 34.2 °F 100% 30.11 in 2.0 mi Calm Calm - 0.04 in Rain Rain
6:35 AM 33.8 °F - 33.8 °F 100% 30.10 in 1.2 mi Calm Calm - 0.10 in Rain Rain
6:55 AM 33.8 °F - 33.8 °F 100% 30.09 in 2.0 mi Calm Calm - 0.15 in Rain Rain
7:15 AM 34.2 °F - 34.2 °F 100% 30.08 in 1.0 mi Calm Calm - 0.04 in Rain Rain
7:35 AM 34.2 °F - 34.2 °F 100% 30.05 in 1.5 mi Calm Calm - 0.07 in Rain Rain
7:55 AM 34.2 °F - 34.2 °F 100% 30.05 in 1.0 mi Calm Calm - 0.09 in Rain Rain
8:15 AM 34.3 °F - 34.3 °F 100% 30.05 in 1.5 mi Calm Calm - 0.04 in Rain Rain
8:35 AM 34.7 °F - 34.7 °F 100% 30.05 in 0.8 mi Calm Calm - 0.08 in Rain Rain
8:55 AM 34.7 °F - 34.7 °F 100% 30.03 in 1.0 mi Calm Calm - 0.13 in Rain Rain
9:15 AM 34.9 °F - 34.9 °F 100% 30.01 in 1.2 mi Calm Calm - 0.04 in Rain Rain
9:35 AM 35.2 °F - 35.2 °F 100% 30.01 in 1.2 mi Calm Calm - 0.10 in Rain Rain
9:55 AM 35.8 °F - 35.8 °F 100% 30.00 in 0.8 mi Calm Calm - 0.16 in Rain Heavy Rain
10:15 AM 35.8 °F - 35.8 °F 100% 29.96 in 1.0 mi Calm Calm - 0.04 in Rain Rain
10:35 AM 38.1 °F 34.6 °F 38.1 °F 100% 29.94 in 2.0 mi WNW 4.6 mph - 0.08 in Rain Rain
10:55 AM 39.7 °F - 39.7 °F 100% 29.89 in 2.0 mi Calm Calm - 0.14 in Rain Rain
11:15 AM 41.4 °F 38.4 °F 41.2 °F 99% 29.87 in 5.0 mi WSW 4.6 mph - 0.03 in Rain Rain
11:35 AM 43.3 °F 39.9 °F 42.8 °F 98% 29.88 in 7.0 mi WSW 5.8 mph - 0.06 in Rain Rain
11:55 AM 43.3 °F 40.7 °F 43.0 °F 99% 29.87 in 4.0 mi West 4.6 mph - 0.09 in Rain Rain
12:15 PM 43.7 °F 41.1 °F 43.7 °F 100% 29.86 in 5.0 mi West 4.6 mph - 0.01 in Rain Light Rain
12:35 PM 44.6 °F 43.1 °F 44.6 °F 100% 29.87 in 10.0 mi West 3.5 mph - 0.03 in Rain Light Rain
12:55 PM 44.6 °F - 44.2 °F 99% 29.86 in 3.0 mi Calm Calm - 0.06 in Rain Rain
1:15 PM 44.2 °F 39.7 °F 44.1 °F 99% 29.87 in 4.0 mi NE 8.1 mph - 0.03 in Rain Rain
1:35 PM 41.4 °F 35.7 °F 40.3 °F 96% 29.86 in 5.0 mi NE 9.2 mph - 0.09 in Rain Rain
1:55 PM 40.5 °F 36.5 °F 39.2 °F 95% 29.85 in 5.0 mi East 5.8 mph - 0.13 in Rain Rain
2:15 PM 39.7 °F 35.6 °F 38.3 °F 95% 29.85 in 7.0 mi NE 5.8 mph - 0.02 in Rain Light Rain
2:35 PM 39.6 °F 34.7 °F 38.3 °F 95% 29.84 in 5.0 mi NE 6.9 mph - 0.06 in Rain Rain
2:55 PM 39.2 °F 35.0 °F 37.9 °F 95% 29.82 in 4.0 mi NE 5.8 mph - 0.10 in Rain Rain
3:15 PM 39.2 °F 33.6 °F 37.8 °F 95% 29.80 in 4.0 mi NE 8.1 mph - 0.03 in Rain Rain
3:35 PM 39.2 °F - 37.8 °F 95% 29.79 in 5.0 mi Calm Calm - 0.07 in Rain Rain
3:55 PM 39.6 °F - 37.6 °F 93% 29.82 in 7.0 mi Calm Calm - 0.08 in Rain Rain
4:15 PM 39.2 °F - 38.7 °F 98% 29.82 in 5.0 mi Calm Calm - 0.01 in Rain Heavy Rain
4:35 PM 39.2 °F - 39.0 °F 99% 29.81 in 5.0 mi Calm Calm - 0.02 in   Heavy Drizzle
4:55 PM 39.2 °F - 38.3 °F 97% 29.81 in 5.0 mi Calm Calm - 0.03 in   Drizzle
5:15 PM 38.7 °F - 37.8 °F 97% 29.81 in 7.0 mi Calm Calm - N/A Rain Light Rain
5:35 PM 39.0 °F - 37.9 °F 96% 29.83 in 7.0 mi Calm Calm - N/A   Light Drizzle
5:55 PM 39.4 °F 36.1 °F 38.3 °F 96% 29.82 in 7.0 mi North 4.6 mph - N/A   Heavy Drizzle
6:15 PM 39.2 °F - 37.8 °F 95% 29.82 in 5.0 mi Calm Calm - 0.01 in Rain Heavy Rain
6:35 PM 38.7 °F 33.6 °F 36.9 °F 93% 29.82 in 10.0 mi North 6.9 mph - 0.02 in Rain Rain
6:55 PM 38.5 °F 31.6 °F 36.0 °F 91% 29.82 in 10.0 mi NNW 10.4 mph 17.3 mph 0.02 in   Drizzle
7:15 PM 38.1 °F 31.7 °F 35.6 °F 91% 29.83 in 10.0 mi NNW 9.2 mph - N/A   Drizzle
7:35 PM 37.8 °F 33.3 °F 35.2 °F 91% 29.83 in 10.0 mi North 5.8 mph - N/A   Light Drizzle
7:55 PM 37.4 °F 32.1 °F 34.7 °F 90% 29.84 in 10.0 mi NNW 6.9 mph - N/A   Overcast
8:15 PM 37.4 °F 32.1 °F 34.7 °F 90% 29.84 in 10.0 mi NNW 6.9 mph - N/A   Drizzle
8:35 PM 37.0 °F 29.3 °F 34.3 °F 90% 29.84 in 10.0 mi NW 11.5 mph - N/A   Drizzle
8:55 PM 36.5 °F 29.7 °F 33.8 °F 90% 29.84 in 10.0 mi NNW 9.2 mph - N/A Rain Rain
9:15 PM 36.0 °F 31.1 °F 33.6 °F 91% 29.85 in 10.0 mi North 5.8 mph - N/A Rain Light Rain
9:35 PM 35.4 °F 27.8 °F 32.9 °F 91% 29.84 in 7.0 mi North 10.4 mph - N/A Rain Light Rain
9:55 PM 35.1 °F 28.6 °F 32.5 °F 91% 29.84 in 7.0 mi North 8.1 mph - N/A   Drizzle
10:15 PM 34.9 °F 27.7 °F 32.0 °F 89% 29.84 in 10.0 mi North 9.2 mph - N/A   Drizzle
10:35 PM 34.7 °F 28.1 °F 32.0 °F 90% 29.84 in 7.0 mi North 8.1 mph - N/A Rain Rain
10:55 PM 34.2 °F 27.5 °F 32.0 °F 92% 29.83 in 7.0 mi North 8.1 mph - N/A Rain Light Rain
11:15 PM 33.8 °F 23.9 °F 31.3 °F 90% 29.85 in 5.0 mi North 15.0 mph 20.7 mph N/A Snow Light Snow
11:35 PM 33.3 °F 25.1 °F 31.5 °F 93% 29.85 in 4.0 mi NNW 10.4 mph - N/A Snow Light Snow
11:55 PM 32.9 °F 26.7 °F 31.6 °F 95% 29.85 in 2.5 mi NNW 6.9 mph - N/A Snow Light Snow